Simultaneous Nadir Overpasses (SNOs) Predictions

Prediction of SNOs between GOES-16 and METOP-B Satellite Orbit:

Table of predicted SNOs for the next 14.0 days since TLE Epoch: 6/6/2025
Index Date Time (GOES-16) GOES-16 Lat,Lon METOP-B Lat,Lon Distance(km) Time Diff (sec)
1 06/07/2025 16:09:54 0.04,-105.41 0.08,-105.50 10.81 80
2 06/09/2025 04:28:57 -0.04,-106.17 -0.90,-110.16 453.67 80
3 06/10/2025 04:05:39 -0.04,-106.69 0.30,-105.19 170.83 80
4 06/11/2025 16:27:13 0.03,-107.53 0.52,-109.82 260.65 80
5 06/12/2025 16:03:55 0.03,-108.04 -0.68,-104.85 363.63 80
6 06/14/2025 04:25:37 -0.02,-108.80 -0.18,-109.50 79.76 80
7 06/16/2025 16:21:13 0.01,-110.15 -0.20,-109.16 112.91 80
8 06/18/2025 04:42:55 -0.01,-110.91 -0.65,-113.81 330.17 80
9 06/19/2025 04:19:36 -0.01,-111.43 0.56,-108.85 294.19 80
10 06/20/2025 16:41:11 0.01,-112.26 0.26,-113.47 137.51 80
